Location: Soapstone Prairie Natural Area
(40.9437°N, 105.0829°W)
Time: 18:17:07
(UTC-06:00)

ISS - Visible Passes

Search period start: 06 July 2015 00:00
Search period end: 16 July 2015 00:00
Orbit: 398 x 402 km, 51.6° (Epoch: 06 July)

Date Brightness Start Highest point End Pass type
(mag) Time Alt. Az. Time Alt. Az. Time Alt. Az.
12 Jul -2.1 05:00:25 10° SSW 05:03:24 34° SE 05:06:24 10° ENE visible
13 Jul -1.2 04:08:24 14° SSE 04:09:53 18° SE 04:12:11 10° E visible
14 Jul -3.3 04:49:26 13° SW 04:52:20 83° SE 04:55:35 10° NE visible
15 Jul -2.6 03:57:49 32° S 03:58:41 40° SE 04:01:45 10° ENE visible
